{"data":{"norad_id":59885,"epoch":"2026-09-20T23:27:49.937184Z","epoch_age_seconds":133228,"freshness":"FRESH","line1":"1 59885U 24100A   26263.97766131  .00000619  00000+0  32021-4 0  9998","line2":"2 59885  43.0026 102.5138 0001123 272.1985  87.8738 15.27579955130924","mean_motion":15.27579955,"eccentricity":0.0001123,"inclination_deg":43.0026,"raan_deg":102.5138,"arg_perigee_deg":272.1985,"mean_anomaly_deg":87.8738,"bstar":3.2021e-5,"rev_number":13092,"period_min":94.266751490595,"perigee_km":482.27871957213,"apogee_km":483.81974199956,"semimajor_km":6861.1862307858,"source":"CELESTRAK","updated_at":"2026-09-22T09:00:49.105188Z"}}